Volver al catálogo

STARLINK-36641

ActivoComunicacionesSSO
NORAD 67589·PAYLOAD·🇺🇸 United States

Lanzado Jan 29, 2026 desde Vandenberg Space Force Base

Loading…

Próximos Pases (próximas 24 horas)

TLE

ActualizadoSource: CelesTrak SupGP

Época: Sep 14, 2026, 21:01 UTC

1 67589C 26018A   26257.87618056 -.00034767  00000+0 -10792-2 0  2571
2 67589  97.2853 321.3548 0000937  97.5632 300.5232 15.33458190    13

Sigue STARLINK-36641 en tiempo real con AllMySat

Download on the App Store